Regional Weather Roundup
Issued by NWS

Home | Current Version | Previous Version | Text Only | Print | Product List | Glossary Off
Versions: 1 2 3 4 5 6 7 8 9 10 11 12 13 14 15 16 17 18 19 20 21 22 23 24 25 26 27 28 29 30 31 32 33 34 35 36 37 38 39 40 41 42 43 44 45 46 47 48 49 50

979
ASUS43 KMKX 200210
RWRWI

WISCONSIN REGIONAL WEATHER ROUNDUP
NATIONAL WEATHER SERVICE MILWAUKEE/SULLIVAN WI
800 PM CST MON FEB 19 2018

NOTE: "FAIR" INDICATES FEW OR NO CLOUDS BELOW 12,000 FEET WITH NO
SIGNIFICANT WEATHER AND/OR OBSTRUCTIONS TO VISIBILITY.

WIZ001-002-006>008-014>016-023>028-200300-
NORTHWEST WISCONSIN

CITY           SKY/WX    TMP DP  RH WIND       PRES   REMARKS
SUPERIOR ARPT  LGT SNOW  17  15  90 NE15G22   30.06F WCI   3
ASHLAND        LGT SNOW  19  16  88 NE18G30   30.04S FOG     WCI   4
HAYWARD        LGT SNOW  18  13  80 NE14G22   29.95F WCI   4
SIREN          LGT SNOW  18  14  86 NE10G16   29.96F WCI   6
CUMBERLAND     CLOUDY    19  16  86 NE13      29.91S FOG     WCI   7
RICE LAKE      CLOUDY    20  18  94 N10       29.93F FOG     WCI   8
CHETEK         CLOUDY    19  18  93 NE9G22    29.90F FOG     WCI   9
LADYSMITH      CLOUDY    21  19  91 NE10      29.92S FOG     WCI   9
EAU CLAIRE     CLOUDY    23  21  92 NE14G21   29.86S FOG     WCI  11
MENOMONIE      CLOUDY    22  21  94 N13       29.88F FOG     WCI  10
NEW RICHMOND   CLOUDY    20  17  86 NE10      29.91S WCI   9
OSCEOLA        CLOUDY    20  17  89 NE10G18   29.95F WCI   9
$$

WIZ003>005-009-010-017-018-200300-
NORTH CENTRAL WISCONSIN

CITY           SKY/WX    TMP DP  RH WIND       PRES   REMARKS
MANITOWISH WTR MIX PCPN  16  16 100 N8        29.91S WCI   5
ARBOR VITAE    CLOUDY    19  17  90 NE7       29.89R FOG     WCI  10
WOODRUFF       CLOUDY    19  17  90 NE7       29.89R FOG     WCI  10
RHINELANDER    FRZ RAIN  20  18  92 NE8       29.86S FOG     WCI  10
EAGLE RIVER    CLOUDY    18  15  88 NE13      29.86F WCI   5
LAND O LAKES   CLOUDY    18  16  92 NE7       29.91F FOG     WCI   8
PHILLIPS       CLOUDY    17  16  96 NE12G17   29.90R FOG     WCI   4
TOMAHAWK       MIX PCPN  20  18  91 NE5       29.88R WCI  13
MEDFORD        CLOUDY    22  20  92 NE13      29.84R FOG     WCI  10
MERRILL        CLOUDY    22  21  95 E6        29.86R FOG     WCI  15
$$

WIZ029-030-035-036-043>047-200300-
CENTRAL WISCONSIN

CITY           SKY/WX    TMP DP  RH WIND       PRES   REMARKS
WAUSAU         FRZ RAIN  25  23  92 NE9       29.82F FOG     WCI  15
MOSINEE        LGT SNOW  25  25 100 E15       29.84S WCI  12
MARSHFIELD     CLOUDY    26  24  92 E15       29.81R FOG     WCI  14
STEVENS POINT  CLOUDY    24  24 100 E8        29.83F FOG     WCI  16
WAUPACA        CLOUDY    30  28  90 NE7       29.84F FOG     WCI  23
WAUTOMA        CLOUDY    28  27  96 NE12      29.82F WCI  18
WISC RAPIDS    CLOUDY    27  24  89 E10G17    29.82F FOG     WCI  17
CAMP DOUGLAS   FRZ DRZL  31  30  99 E6        29.80R FOG     WCI  25
$$

WIZ011>013-019>022-031-037>040-048>050-200300-
NORTHEAST WISCONSIN

CITY           SKY/WX    TMP DP  RH WIND       PRES   REMARKS
ANTIGO         CLOUDY    23  22  96 NE13      29.83F FOG     WCI  11
SHAWANO        CLOUDY    29  26  91 NE10      29.87F FOG     WCI  19
OCONTO         CLOUDY    27  26  94 NE10G16   29.88F WCI  18
STURGEON BAY   CLOUDY    30  29  96 NE10      29.88F FOG     WCI  21
GREEN BAY      FRZ RAIN  28  25  88 NE24G31   29.85F FOG     WCI  14
MANITOWOC      LGT RAIN  33  32  96 NE10      29.84F FOG     WCI  25
APPLETON       CLOUDY    27  27 100 NE17G25   29.82F FOG     WCI  14
CLINTONVILLE   MIX PCPN  28  26  93 NE8       29.85F WCI  19
OSHKOSH        CLOUDY    30  29  96 N7        29.81F FOG     WCI  23
$$

WIZ032>034-041-042-053>061-200300-
SOUTHWEST WISCONSIN

CITY           SKY/WX    TMP DP  RH WIND       PRES   REMARKS
LA CROSSE      CLOUDY    35  33  92 NE9       29.79R FOG     WCI  28
SPARTA         CLOUDY    31  31  99 NE7       29.80R FOG     WCI  24
VIROQUA        CLOUDY    33  33 100 E13       29.73F WCI  24
BOSCOBEL       CLOUDY    37  36  96 NE7       29.76R FOG     WCI  32
PRAIRIE DU CHI FOG       37  36  95 CALM      29.74S VSB 1/2
PLATTEVILLE    CLOUDY    37  37 100 E9        29.73S WCI  30
$$

WIZ056-057-062-063-064-067-068-200300-
SOUTH CENTRAL WISCONSIN

CITY           SKY/WX    TMP DP  RH WIND       PRES   REMARKS
REEDSBURG      CLOUDY    31  31 100 E7        29.77S FOG     WCI  25
BARABOO/DELLS  CLOUDY    32  31  97 NE8       29.77S FOG     WCI  24
LONE ROCK      CLOUDY    35  35 100 E5        29.76S FOG     WCI  31
MINERAL POINT  FOG       37  37 100 E5        29.73R VSB 1/4 WCI  34
MADISON        LGT RAIN  35  34  96 E8        29.77F FOG     WCI  29
MIDDLETON      CLOUDY    36  36 100 E7        29.76F WCI  30
WATERTOWN      DRIZZLE   36  36 100 E10       29.77F WCI  28
MONROE         DRZL/FOG  37  37 100 NE3       29.74R VSB 1/2
JANESVILLE     FOG       39  39 100 CALM      29.74F VSB 1/4
$$

WIZ051-052-058>065-066-070>072-200300-
SOUTHEAST WISCONSIN

CITY           SKY/WX    TMP DP  RH WIND       PRES   REMARKS
MILWAUKEE      LGT RAIN  37  36  96 N5        29.80F FOG     WCI  33
WAUKESHA       LGT RAIN  34  34 100 NE9       29.81F FOG     WCI  26
MILWAUKEE/TIMM LGT RAIN  36  32  87 NE6       29.82F WCI  31
RACINE         FOG       36  36 100 N5        29.82F VSB 1   WCI  32
BURLINGTON     MIX PCPN  36  35  96 E6        29.79F WCI  31
KENOSHA        FOG       37  36  96 NE5       29.80F VSB 1/2 WCI  33
FOND DU LAC    LGT SNOW  34  31  88 NE7       29.81F FOG     WCI  28
SHEBOYGAN      LGT RAIN  34  34 100 NE14      29.82F FOG     WCI  25
WEST BEND      CLOUDY    34  34 100 E8        29.81F FOG     WCI  27
JUNEAU         LGT RAIN  33  33  98 NE10      29.79S WCI  25
$$

LSZ147-162-200300-
LAKE SUPERIOR

STATION/POSITION TIME  TEMP    WIND        PRES    WAVE
                       AIR SEA DIR/SP/G            HT/PER
                 (UTC) (F)     (DEG/KT/KT) (MB)    (FT/S)
DEVILS ISLAND    0200   19      40/ 28/ 33 1019.8F
SAXON HARBOR     0130   19      50/ 25/ 34 1016.9S
$$

LMZ867-665-643>646-200300-
LAKE MICHIGAN

STATION/POSITION TIME  TEMP    WIND        PRES    WAVE
                       AIR SEA DIR/SP/G            HT/PER
                 (UTC) (F)     (DEG/KT/KT) (MB)    (FT/S)
NORTHPORT PIER   0144   29                 1012.9F
KEWAUNEE LAKESHO 0148   33      40/ 13/ 19 1010.5F
SHEBOYGAN LAKESH 0200   35      20/ 14/ 15 1010.3F
PORT WASHINGTON  0130   37      20/  7/ 12 1011.2F
MILWAUKEE LAKESH 0150   36     360/  8/ 12   N/A
KENOSHA   LAKESH 0200   36      20/  5/  7 1009.5
$$

TC  - TEMPERATURE IN CELSIUS
VSB - VISIBILITY IN STATUTE MILES
WCI - WIND CHILL INDEX
HX  - HEAT INDEX





USA.gov is the U.S. government's official web portal to all federal, state and local government web resources and services.